#timestamp,LO_Frequency,Hit,StdDev 
1540371615.3,286047002.5,N
1540371635.1,286047000.2,N
1540371655.8,286047001.4,N
1540371675.7,286047001.7,N
1540371695.5,286047003.8,N
1540371715.4,286047003.5,N
1540371735.2,286047003.5,N
1540371755.0,286047004.7,Y
1540371755.9,286047004.7,P
1540371775.8,286047003.8,P
1540371795.6,286047001.8,N
1540371815.4,286047000.0,N
1540371835.3,286047001.0,N
1540371855.1,286046998.2,N
1540371875.9,286047000.0,N
1540371895.7,286046998.5,N
1540371915.5,286046997.4,N
1540371935.4,286047001.2,N
1540371955.2,286046999.0,N
1540371975.0,286046998.1,N
1540371975.9,286046998.1,N
1540371995.8,286046999.9,N
1540372015.6,286046998.7,N
1540372035.5,286046999.0,N
1540372055.3,286046997.2,N
1540372075.1,286046998.0,N
1540372095.9,286046998.5,N
1540372115.7,286046998.6,N
1540372135.5,286046998.7,N
1540372155.4,286046999.4,N
1540372175.2,286046996.6,N
1540372195.1,286046996.9,N
1540372196.0,286046996.9,N
1540372215.8,286046998.0,N
1540372235.6,286046997.8,N
1540372255.5,286046999.1,N
1540372275.3,286046997.2,N
1540372295.1,286046998.0,N
1540372315.9,286046999.5,N
1540372335.7,286046999.3,N
1540372355.6,286046999.4,N
1540372375.4,286047000.8,N
1540372395.2,286047000.6,N
1540372415.1,286046998.4,N
1540372416.0,286046998.4,N
1540372435.8,286046998.8,N
1540372455.6,286046998.2,N
1540372475.5,286046998.7,N
1540372495.3,286046999.2,N
1540372515.2,286046997.0,Y
1540372535.9,286046996.5,P
1540372555.7,286046998.5,N
1540372575.6,286047000.7,N
1540372595.4,286046999.9,N
1540372615.2,286046998.8,N
1540372635.1,286046996.8,N
1540372636.0,286046996.8,N
1540372655.8,286046999.4,N
1540372675.7,286046999.3,N
1540372695.5,286046998.7,N
1540372715.3,286046998.5,N
1540372735.2,286046997.1,N
1540372755.0,286046996.8,N
1540372755.9,286046996.8,N
1540372775.8,286046995.3,Y
1540372795.6,286046997.8,P
1540372815.4,286046996.2,P
1540372835.3,286046995.5,P
1540372855.1,286046995.7,Y
1540372875.8,286046996.9,P
1540372895.7,286046999.2,P
1540372915.5,286046999.4,N
1540372935.4,286046998.7,N
1540372955.2,286047000.8,N
1540372975.0,286047004.1,N
1540372975.9,286047004.1,N
1540372995.8,286047003.0,N
1540373015.6,286047003.3,N
1540373035.4,286047005.5,N
1540373055.3,286047002.0,N
1540373075.1,286047001.0,N
1540373095.9,286047000.9,N
1540373115.7,286047002.1,N
1540373135.5,286047004.4,N
1540373155.4,286047001.3,N
1540373175.2,286047004.0,N
1540373195.0,286047002.9,N
1540373195.9,286047002.9,N
1540373215.8,286047003.0,N
1540373235.6,286047003.7,N
1540373255.5,286047004.2,N
1540373275.3,286047003.5,N
1540373295.1,286047001.3,N
1540373315.9,286047001.4,N
1540373335.7,286047003.9,N
1540373355.5,286047001.3,N
1540373375.4,286047001.8,N
1540373395.2,286047000.4,N
1540373415.1,286046998.1,N
1540373416.0,286046998.1,N
1540373435.8,286047000.8,N
1540373455.6,286046998.6,N
1540373475.5,286046999.6,N
1540373495.3,286047000.5,N
1540373515.1,286046999.5,N
1540373535.9,286046998.4,N
1540373555.7,286046999.4,N
1540373575.6,286046996.7,N
1540373595.4,286046997.0,N
1540373615.2,286046998.3,N
1540373635.1,286046997.0,N
1540373636.0,286046997.0,N
1540373655.8,286046997.8,N
1540373675.7,286046997.3,N
1540373695.5,286046996.6,N
1540373715.3,286046997.0,N
1540373735.2,286046996.9,N
1540373755.9,286046996.8,N
1540373775.7,286046997.5,N
1540373795.6,286046995.0,N
1540373815.4,286046995.1,N
1540373835.3,286046997.5,N
1540373855.1,286046998.0,N
1540373856.0,286046998.0,N
1540373875.8,286046999.6,N
1540373895.7,286046996.9,N
1540373915.5,286046999.1,N
1540373935.3,286046998.3,N
1540373955.2,286046998.6,N
1540373975.0,286046999.1,N
1540373975.9,286046999.1,N
1540373995.8,286047000.6,N
1540374015.6,286047000.4,N
1540374035.4,286047001.0,N
1540374055.3,286046999.1,N
1540374075.1,286046999.2,N
1540374095.8,286047000.8,N
1540374115.7,286046996.9,N
1540374135.5,286046996.6,N
1540374155.4,286046997.0,N
1540374175.2,286046996.6,N
1540374195.0,286046997.4,N
1540374195.9,286046997.4,N
1540374215.8,286046996.8,N
1540374235.6,286046997.8,N
1540374255.4,286046997.6,N
1540374275.3,286046995.0,Y
1540374295.1,286046998.3,P
1540374315.9,286046999.0,P
1540374335.7,286046997.8,P
1540374355.5,286046998.0,Y
1540374375.4,286046997.4,P
1540374395.2,286046996.8,P
1540374415.0,286046999.5,N
1540374416.0,286046999.5,N
1540374435.8,286046999.2,N
1540374455.6,286046996.9,N
1540374475.5,286046997.0,N
1540374495.3,286046997.8,N
1540374515.1,286046997.7,N
1540374535.9,286046997.4,N
1540374555.7,286046998.9,N
1540374575.5,286047001.2,N
1540374595.4,286046998.5,N
1540374615.2,286047000.8,N
1540374635.1,286047000.8,N
1540374636.0,286047000.8,N
1540374655.8,286047001.0,N
1540374675.6,286046999.2,N
1540374695.5,286046998.2,N
1540374715.3,286046999.1,N
1540374735.1,286046997.0,N
1540374755.9,286046997.2,N
1540374775.7,286046997.0,N
1540374795.6,286046995.0,Y
1540374815.4,286046998.3,P
1540374835.2,286047000.9,P
1540374855.1,286047002.0,N
1540374856.0,286047002.0,N
1540374875.8,286047002.8,N
1540374895.7,286047001.2,N
1540374915.5,286047002.2,N
1540374935.3,286047002.5,N
1540374955.2,286047002.0,N
1540374975.9,286047001.4,N
1540374995.7,286047001.5,N
1540375015.6,286047003.9,N
1540375035.4,286047004.3,N
1540375085.3,286047004.3,E
1540375095.2,286047001.1,N
1540375115.0,286046995.1,P
1540375115.9,286046995.1,N
1540375135.8,286046994.9,N
1540375155.6,286046996.5,N
1540375175.5,286046999.1,N
1540375195.3,286047000.9,N
